Jaipur, India

11:16 AM IST on May 23, 2017 (GMT +0530)
Jaipur

Weather History for VIJP - October, 2013

Change the Weather History Date:

Saturday, October 5, 2013

  Actual Average Record
Temperature  
Mean Temperature 80 °F -  
Max Temperature 88 °F - - ()
Min Temperature 73 °F - - ()
Cooling Degree Days 16    
Growing Degree Days 30 (Base 50)    
Moisture  
Dew Point 71 °F    
Average Humidity 72    
Maximum Humidity 94    
Minimum Humidity 42    
Precipitation  
Precipitation 0.00 in - - ()
Sea Level Pressure  
Sea Level Pressure 29.72 in    
Wind  
Wind Speed 3 mph ()    
Max Wind Speed 9 mph    
Max Gust Speed -    
Visibility 2.0 miles    
Events      
T = Trace of Precipitation, MM = Missing Value Source: Averaged Metar Reports

Daily Weather History Graph

Daily Weather History Graph

Search for Another Location

Airport or City:

Trip Planner

Search our weather history database for the weather conditions in past years. The results will help you decide how hot, cold, wet, or windy it might be!

Date:

Astronomy

Oct. 05, 2013 Rise Set
Actual Time 6:21 AM IST 6:08 PM IST
Civil Twilight 5:57 AM IST 6:32 PM IST
Nautical Twilight 5:31 AM IST 6:59 PM IST
Astronomical Twilight 5:04 AM IST 7:25 PM IST
Moon 6:26 AM IST (10/5) 6:17 PM IST (10/5)
Length of Visible Light 12h 34m
Length of Day
11h 47m
New Moon, 0% of the Moon is Illuminated
Oct 5
New Moon
Oct 12
First Quarter
Oct 19
Full
Oct 27
Last Quarter
Nov 3
New

Hourly Weather History & Observations

Time (IST) Temp. Heat Index Dew Point Humidity Pressure Visibility Wind Dir Wind Speed Gust Speed Precip Events Conditions
12:00 AM 75.2 °F - 71.6 °F 89% 29.77 in 2.2 mi ENE 4.6 mph - N/A   Mostly Cloudy
1:00 AM 73.4 °F - 71.6 °F 94% 29.77 in 2.2 mi NE 3.5 mph - N/A   Mostly Cloudy
2:30 AM 74 °F - 71 °F 87% 29.70 in 1 mi NNE 4.6 mph - -   Mist
4:00 AM 75.2 °F - 71.6 °F 89% 29.71 in 2.2 mi NE 3.5 mph - N/A   Mostly Cloudy
5:00 AM 75.2 °F - 71.6 °F 89% 29.71 in 2.2 mi Variable 4.6 mph - N/A   Mostly Cloudy
5:30 AM 74 °F - 70 °F 84% 29.69 in 1 mi North 3.5 mph - -   Mist
5:30 AM 75.2 °F - 69.8 °F 83% 29.74 in 2.2 mi Variable 2.3 mph - N/A   Mostly Cloudy
6:00 AM 75.2 °F - 69.8 °F 83% 29.74 in 2.2 mi Variable 3.5 mph - N/A   Mostly Cloudy
6:30 AM 75.2 °F - 69.8 °F 83% 29.74 in 2.2 mi Calm Calm - N/A   Mostly Cloudy
7:00 AM 75.2 °F - 69.8 °F 83% 29.74 in 2.2 mi East 3.5 mph - N/A   Mostly Cloudy
8:00 AM 77.0 °F - 71.6 °F 83% 29.77 in 2.2 mi NNE 6.9 mph - N/A   Scattered Clouds
8:30 AM 79 °F - 71 °F 71% 29.70 in 1 mi NE 4.6 mph - -   Mist
9:00 AM 78.8 °F - 71.6 °F 78% 29.77 in 2.2 mi ENE 9.2 mph - N/A   Mostly Cloudy
10:00 AM 80.6 °F 84.6 °F 71.6 °F 74% 29.80 in 2.5 mi NE 6.9 mph - N/A   Haze
11:00 AM 82.4 °F 87.2 °F 71.6 °F 70% 29.80 in 2.5 mi Variable 4.6 mph - N/A   Haze
11:30 AM 81 °F - 71 °F 65% 29.70 in 2 mi 3.5 mph - -   Haze
12:00 PM 82.4 °F 87.2 °F 71.6 °F 70% 29.77 in 2.5 mi Variable 4.6 mph - N/A   Haze
1:00 PM 86.0 °F 91.8 °F 71.6 °F 62% 29.74 in 2.5 mi Calm Calm - N/A   Haze
2:00 PM 89.6 °F 94.7 °F 69.8 °F 52% 29.71 in 2.5 mi Variable 4.6 mph - N/A   Haze
2:30 PM 89 °F - 69 °F 42% 29.61 in 2 mi NE 4.6 mph - -   Haze
3:00 PM 87.8 °F 91.4 °F 68.0 °F 52% 29.68 in 2.5 mi Variable 4.6 mph - N/A   Haze
4:00 PM 87.8 °F 92.6 °F 69.8 °F 55% 29.65 in 2.5 mi NE 6.9 mph - N/A   Haze
5:00 PM 86.0 °F 90.4 °F 69.8 °F 58% 29.68 in 2.5 mi ENE 8.1 mph - N/A   Haze
5:30 PM 85 °F - 70 °F 51% 29.60 in 2 mi ENE 5.8 mph - -   Haze
6:00 PM 84.2 °F 88.4 °F 69.8 °F 62% 29.68 in 2.5 mi Variable 2.3 mph - N/A   Haze
8:00 PM 82.4 °F 86.3 °F 69.8 °F 66% 29.71 in 1.6 mi Variable 3.5 mph - N/A   Haze
8:30 PM 82 °F - 70 °F 59% 29.68 in 1 mi Calm Calm - -   Haze
9:00 PM 80.6 °F 83.9 °F 69.8 °F 70% 29.74 in 1.6 mi Calm Calm - N/A   Haze
10:00 PM 78.8 °F - 69.8 °F 74% 29.74 in 1.6 mi Calm Calm - N/A   Haze
11:00 PM 78.8 °F - 71.6 °F 78% 29.74 in 1.6 mi Calm Calm - N/A   Haze
11:30 PM 78 °F - 71 °F 74% 29.68 in 1 mi Calm Calm - -   Haze